Voltar ao catálogo

HULIANWANG DIGUI-140

AtivoComunicaçõesLEO
NORAD 67438·PAYLOAD·🇨🇳 China

Lançado Jan 13, 2026 de Wenchang Space Launch Site

Loading…

Próximas Passagens (próximas 24 horas)

TLE

AtualizadoSource: Space-Track

Época: Sep 14, 2026, 15:27 UTC

1 67438U 26007D   26257.64441600 -.00000087  00000-0  80621-4 0  9997
2 67438  50.0045 125.2060 0000423   3.5158 356.5717 13.29329581 32687

Acompanhe HULIANWANG DIGUI-140 em tempo real com AllMySat

Download on the App Store